Location: Barcelona
(41.3829°N, 2.1774°E)
Time: 20:16:17
(UTC+00:00)

ISS - Pass Details

Date: 12 July 2025
Orbit: 413 x 417 km, 51.6° (Epoch: 13 July)

Event Time Altitude Azimuth Distance (km) Brightness Sun altitude
Rises 00:47:10 0° 309° (NW) 2,357 0.4 -25.6°
Reaches altitude 10° 00:49:25 10° 320° (NW) 1,493 -0.5 -25.5°
Enters shadow 00:52:03 31° 10° (N) 765 -1.9 -25.4°
